This is the latest recevied weather packets stored in our database for station/object KB2KMM. If no packets are shown the sender has not sent any weather packets the latest 1 day(s).
| Time | Temp. | Humidity | Pressure | Rain* | Wind** | Luminosity | Snow |
|---|---|---|---|---|---|---|---|
| 1778022905 | 16.67° C | 71% | 1010 hPa | 0 mm | 3.13 m/s, 315° | - | - |
| 1778022608 | 16.67° C | 70% | 1009.9 hPa | 0 mm | 4.47 m/s, 210° | - | - |
| 1778022305 | 17.22° C | 69% | 1009.8 hPa | 0 mm | 4.02 m/s, 216° | - | - |
| 1778022005 | 17.22° C | 68% | 1009.8 hPa | 0 mm | 2.68 m/s, 213° | - | - |
| 1778021705 | 17.22° C | 68% | 1009.9 hPa | 0 mm | 3.58 m/s, 213° | - | - |
| 1778021409 | 17.22° C | 68% | 1009.8 hPa | 0 mm | 3.13 m/s, 230° | - | - |
| 1778021105 | 17.22° C | 67% | 1009.7 hPa | 0 mm | 3.13 m/s, 208° | - | - |
| 1778020809 | 17.22° C | 66% | 1009.7 hPa | 0 mm | 4.47 m/s, 221° | - | - |
| 1778020505 | 17.22° C | 66% | 1009.6 hPa | 0 mm | 3.13 m/s, 204° | - | - |
| 1778020216 | 17.22° C | 65% | 1009.6 hPa | 0 mm | 3.13 m/s, 185° | - | - |
| 1778019904 | 17.78° C | 64% | 1009.6 hPa | 0 mm | 4.02 m/s, 217° | - | - |
| 1778019609 | 17.78° C | 63% | 1009.6 hPa | 0 mm | 3.58 m/s, 215° | - | - |
| 1778019305 | 18.33° C | 61% | 1009.5 hPa | 0 mm | 3.13 m/s, 208° | - | - |
| 1778019008 | 18.33° C | 63% | 1009.6 hPa | 0 mm | 2.68 m/s, 177° | - | - |
| 1778018705 | 18.33° C | 63% | 1009.5 hPa | 0 mm | 2.68 m/s, 216° | - | - |
| 1778018405 | 18.33° C | 61% | 1009.6 hPa | 0 mm | 4.02 m/s, 231° | - | - |
| 1778018106 | 18.33° C | 61% | 1009.5 hPa | 0 mm | 2.68 m/s, 218° | - | - |
| 1778017810 | 18.33° C | 61% | 1009.6 hPa | 0 mm | 2.24 m/s, 187° | - | - |
| 1778017505 | 18.33° C | 60% | 1009.5 hPa | 0 mm | 4.47 m/s, 212° | - | - |
| 1778017209 | 18.33° C | 60% | 1009.4 hPa | 0 mm | 1.79 m/s, 212° | - | - |
| 1778016905 | 18.89° C | 59% | 1009.3 hPa | 0 mm | 2.68 m/s, 187° | - | - |
| 1778016609 | 18.89° C | 58% | 1009.3 hPa | 0 mm | 4.02 m/s, 213° | - | - |
| 1778016305 | 18.89° C | 59% | 1009.2 hPa | 0 mm | 3.13 m/s, 217° | - | - |
| 1778016008 | 18.89° C | 60% | 1009.1 hPa | 0 mm | 2.24 m/s, 214° | - | - |
| 1778015707 | 18.89° C | 60% | 1009.2 hPa | 0 mm | 3.13 m/s, 202° | - | - |
* Rain latest hour (hover to see other rain measurements)
** Current wind speed in m/s (hover to see current wind gust speed)